This is the latest recevied weather packets stored in our database for station/object K7KAR-2. If no packets are shown the sender has not sent any weather packets the latest 10 day(s).
| Time | Temp. | Humidity | Pressure | Rain* | Wind** | Luminosity | Snow |
|---|---|---|---|---|---|---|---|
| 1777623747 | 2.78° C | 40% | 1018.8 hPa | 0 mm | - | 0 W/m² | - |
| 1777623444 | 2.78° C | 40% | 1019 hPa | 0 mm | - | 0 W/m² | - |
| 1777623141 | 2.78° C | 40% | 1019.1 hPa | 0 mm | - | 0 W/m² | - |
| 1777622838 | 3.33° C | 39% | 1018.9 hPa | 0 mm | - | 0 W/m² | - |
| 1777622534 | 2.78° C | 41% | 1019 hPa | 0 mm | - | 0 W/m² | - |
| 1777622231 | 2.78° C | 41% | 1019.1 hPa | 0 mm | - | 0 W/m² | - |
| 1777621928 | 2.78° C | 39% | 1019 hPa | 0 mm | - | 0 W/m² | - |
| 1777621623 | 3.33° C | 40% | 1019.2 hPa | 0 mm | - | 0 W/m² | - |
| 1777621320 | 3.33° C | 39% | 1019.1 hPa | 0 mm | - | 0 W/m² | - |
| 1777621015 | 3.33° C | 40% | 1019.1 hPa | 0 mm | - | 0 W/m² | - |
| 1777620711 | 3.89° C | 38% | 1019.1 hPa | 0 mm | - | 0 W/m² | - |
| 1777620407 | 3.33° C | 38% | 1019.1 hPa | 0 mm | - | 0 W/m² | - |
| 1777620105 | 3.33° C | 40% | 1019.2 hPa | 0 mm | - | 0 W/m² | - |
| 1777619801 | 2.78° C | 40% | 1019.2 hPa | 0 mm | - | 0 W/m² | - |
| 1777619497 | 3.33° C | 40% | 1019.2 hPa | 0 mm | - | 0 W/m² | - |
| 1777619192 | 3.89° C | 39% | 1019.2 hPa | 0 mm | - | 0 W/m² | - |
| 1777618891 | 3.89° C | 37% | 1019.2 hPa | 0 mm | - | 0 W/m² | - |
| 1777618586 | 3.89° C | 38% | 1019.1 hPa | 0 mm | - | 0 W/m² | - |
| 1777618282 | 3.89° C | 36% | 1019.4 hPa | 0 mm | - | 0 W/m² | - |
| 1777617980 | 4.44° C | 33% | 1019.4 hPa | 0 mm | - | 0 W/m² | - |
| 1777617675 | 4.44° C | 36% | 1019.2 hPa | 0 mm | - | 0 W/m² | - |
| 1777617371 | 4.44° C | 35% | 1019.1 hPa | 0 mm | - | 0 W/m² | - |
| 1777617069 | 4.44° C | 35% | 1019.1 hPa | 0 mm | - | 0 W/m² | - |
| 1777616769 | 4.44° C | 34% | 1019.1 hPa | 0 mm | - | 0 W/m² | - |
| 1777616464 | 4.44° C | 34% | 1019.1 hPa | 0 mm | - | 0 W/m² | - |
* Rain latest hour (hover to see other rain measurements)
** Current wind speed in m/s (hover to see current wind gust speed)